When you browse on this site, cookies collect data to enhance your experience and personalize the content and advertising you see.
Visit our Privacy Policy to learn more. By continuing to use the site, you agree to this use of cookies and data.
  • In Spain
  • List of Countries
  • For 7 days
  • Water Temperature
  • Satellite Maps
  • Weather Map
  • Weather Widgets
  • user-avatar
    Login

    Hourly Weather Sidi Bu-l-Abbas

    Today, 23 March, Saturday

    Time Temperature Precipitation Wind Pressure Humidity
    00:00 +7°C° 0 mm 0 mps 724 mmHg 96%
    01:00 +7°C° 0 mm 0 mps 724 mmHg 96%
    02:00 +6°C° 0 mm 0 mps 724 mmHg 95%
    03:00 +6°C° 0 mm 0 mps 724 mmHg 95%
    04:00 +6°C° 0 mm 0 mps 723 mmHg 95%
    05:00 +6°C° 0 mm 0 mps 723 mmHg 95%
    06:00 +5°C° 0 mm 0 mps 723 mmHg 96%
    07:00 +7°C° 0 mm 0 mps 724 mmHg 87%
    08:00 +10°C° 0 mm 1 mps 724 mmHg 79%
    09:00 +13°C° 0 mm 1 mps 724 mmHg 71%
    10:00 +14°C° 0 mm 2 mps 724 mmHg 63%
    11:00 +16°C° 0 mm 2 mps 724 mmHg 54%
    12:00 +17°C° 0 mm 2 mps 724 mmHg 47%
    13:00 +17°C° 0 mm 3 mps 724 mmHg 44%
    14:00 +18°C° 0 mm 3 mps 723 mmHg 40%
    15:00 +19°C° 0 mm 3 mps 723 mmHg 37%
    16:00 +18°C° 0 mm 4 mps 722 mmHg 44%
    17:00 +16°C° 0 mm 5 mps 722 mmHg 51%
    18:00 +14°C° 0 mm 5 mps 722 mmHg 59%
    19:00 +13°C° 0 mm 4 mps 722 mmHg 67%
    20:00 +12°C° 0 mm 4 mps 722 mmHg 76%
    21:00 +11°C° 0 mm 3 mps 722 mmHg 84%
    22:00 +11°C° 0 mm 3 mps 722 mmHg 81%
    23:00 +11°C° 0 mm 3 mps 722 mmHg 78%

    Tomorrow, 24 March, Sunday

    Time Temperature Precipitation Wind Pressure Humidity
    00:00 +10°C° 0 mm 2 mps 722 mmHg 75%
    01:00 +12°C° 0 mm 2 mps 722 mmHg 68%
    02:00 +13°C° 0 mm 2 mps 721 mmHg 60%
    03:00 +13°C° 0 mm 2 mps 721 mmHg 53%
    04:00 +13°C° 0 mm 2 mps 721 mmHg 53%
    05:00 +12°C° 0 mm 2 mps 721 mmHg 53%
    06:00 +11°C° 0 mm 3 mps 721 mmHg 53%
    07:00 +13°C° 0 mm 3 mps 721 mmHg 48%
    08:00 +16°C° 0 mm 3 mps 722 mmHg 44%
    09:00 +18°C° 0 mm 4 mps 722 mmHg 39%
    10:00 +19°C° 0 mm 5 mps 723 mmHg 40%
    11:00 +19°C° 0 mm 6 mps 723 mmHg 40%
    12:00 +20°C° 0 mm 7 mps 723 mmHg 41%
    13:00 +19°C° 0.3 mm 6 mps 722 mmHg 45%
    14:00 +17°C° 0.3 mm 5 mps 722 mmHg 49%
    15:00 +17°C° 0.3 mm 4 mps 721 mmHg 54%
    16:00 +17°C° 0.3 mm 4 mps 721 mmHg 56%
    17:00 +15°C° 0.3 mm 4 mps 721 mmHg 58%
    18:00 +15°C° 0.3 mm 5 mps 721 mmHg 60%
    19:00 +14°C° 0.2 mm 4 mps 721 mmHg 61%
    20:00 +13°C° 0.2 mm 4 mps 721 mmHg 62%
    21:00 +13°C° 0.2 mm 3 mps 721 mmHg 64%
    22:00 +13°C° 0.1 mm 3 mps 721 mmHg 62%
    23:00 +12°C° 0.1 mm 3 mps 721 mmHg 61%

    Day after tomorrow, 25 March, Monday

    Time Temperature Precipitation Wind Pressure Humidity
    00:00 +12°C° 0.1 mm 3 mps 721 mmHg 59%
    01:00 +12°C° 0 mm 3 mps 721 mmHg 60%
    02:00 +13°C° 0 mm 2 mps 720 mmHg 60%
    03:00 +12°C° 0 mm 2 mps 720 mmHg 60%
    04:00 +12°C° 0 mm 2 mps 720 mmHg 61%
    05:00 +12°C° 0 mm 2 mps 720 mmHg 61%
    06:00 +12°C° 0 mm 1 mps 720 mmHg 61%
    07:00 +14°C° 0 mm 2 mps 720 mmHg 53%
    08:00 +17°C° 0 mm 2 mps 721 mmHg 45%
    09:00 +19°C° 0 mm 2 mps 721 mmHg 37%
    10:00 +21°C° 0 mm 2 mps 721 mmHg 33%
    11:00 +22°C° 0 mm 3 mps 721 mmHg 30%
    12:00 +25°C° 0 mm 3 mps 721 mmHg 26%
    13:00 +25°C° 0 mm 3 mps 720 mmHg 27%
    14:00 +25°C° 0 mm 4 mps 720 mmHg 28%
    15:00 +26°C° 0 mm 5 mps 719 mmHg 29%
    16:00 +23°C° 0 mm 5 mps 719 mmHg 36%
    17:00 +21°C° 0 mm 4 mps 718 mmHg 43%
    18:00 +19°C° 0 mm 4 mps 718 mmHg 50%
    19:00 +17°C° 0 mm 3 mps 718 mmHg 57%
    20:00 +16°C° 0 mm 2 mps 719 mmHg 63%
    21:00 +14°C° 0 mm 1 mps 719 mmHg 70%
    22:00 +14°C° 0 mm 1 mps 719 mmHg 71%
    23:00 +14°C° 0 mm 1 mps 719 mmHg 71%

    26 March, Tuesday

    Time Temperature Precipitation Wind Pressure Humidity
    00:00 +14°C° 0 mm 1 mps 718 mmHg 72%
    01:00 +13°C° 0 mm 1 mps 718 mmHg 72%
    02:00 +13°C° 0 mm 1 mps 718 mmHg 71%
    03:00 +13°C° 0 mm 1 mps 718 mmHg 71%
    04:00 +13°C° 0 mm 1 mps 718 mmHg 69%
    05:00 +14°C° 0 mm 1 mps 718 mmHg 67%
    06:00 +14°C° 0 mm 1 mps 718 mmHg 66%
    07:00 +15°C° 0 mm 1 mps 718 mmHg 61%
    08:00 +16°C° 0 mm 2 mps 719 mmHg 56%
    09:00 +18°C° 0 mm 2 mps 719 mmHg 51%
    10:00 +19°C° 0.2 mm 2 mps 719 mmHg 48%
    11:00 +20°C° 0.2 mm 3 mps 719 mmHg 45%
    12:00 +21°C° 0.2 mm 4 mps 719 mmHg 42%
    13:00 +22°C° 0 mm 5 mps 719 mmHg 40%
    14:00 +23°C° 0 mm 6 mps 718 mmHg 38%
    15:00 +24°C° 0 mm 7 mps 718 mmHg 36%
    16:00 +22°C° 0 mm 7 mps 718 mmHg 42%
    17:00 +20°C° 0 mm 8 mps 717 mmHg 49%
    18:00 +18°C° 0 mm 8 mps 717 mmHg 55%
    19:00 +16°C° 0 mm 7 mps 718 mmHg 60%
    20:00 +15°C° 0 mm 7 mps 718 mmHg 65%
    21:00 +14°C° 0 mm 6 mps 719 mmHg 71%
    22:00 +13°C° 0 mm 5 mps 719 mmHg 69%
    23:00 +13°C° 0 mm 5 mps 719 mmHg 68%

    27 March, Wednesday

    Time Temperature Precipitation Wind Pressure Humidity
    00:00 +13°C° 0 mm 4 mps 719 mmHg 67%
    01:00 +12°C° 0 mm 4 mps 719 mmHg 68%
    02:00 +11°C° 0 mm 4 mps 719 mmHg 68%
    03:00 +11°C° 0 mm 3 mps 719 mmHg 69%
    04:00 +11°C° 0 mm 3 mps 719 mmHg 70%
    05:00 +10°C° 0 mm 3 mps 719 mmHg 71%
    06:00 +10°C° 0 mm 4 mps 719 mmHg 73%
    07:00 +11°C° 0.1 mm 4 mps 720 mmHg 70%
    08:00 +12°C° 0.1 mm 4 mps 720 mmHg 66%
    09:00 +13°C° 0.1 mm 5 mps 721 mmHg 63%
    10:00 +14°C° 0.1 mm 5 mps 721 mmHg 57%
    11:00 +15°C° 0.1 mm 6 mps 721 mmHg 52%
    12:00 +16°C° 0.1 mm 6 mps 721 mmHg 46%
    13:00 +16°C° 0 mm 7 mps 721 mmHg 46%
    14:00 +16°C° 0 mm 7 mps 721 mmHg 46%
    15:00 +16°C° 0 mm 8 mps 720 mmHg 46%
    16:00 +15°C° 0 mm 7 mps 721 mmHg 49%
    17:00 +14°C° 0 mm 7 mps 721 mmHg 53%
    18:00 +12°C° 0 mm 7 mps 721 mmHg 57%
    19:00 +12°C° 0 mm 5 mps 721 mmHg 63%
    20:00 +11°C° 0 mm 3 mps 722 mmHg 69%
    21:00 +10°C° 0 mm 2 mps 722 mmHg 75%
    22:00 +10°C° 0 mm 2 mps 722 mmHg 76%
    23:00 +11°C° 0 mm 1 mps 722 mmHg 76%

    28 March, Thursday

    Time Temperature Precipitation Wind Pressure Humidity
    00:00 +11°C° 0 mm 1 mps 722 mmHg 77%
    01:00 +10°C° 0 mm 1 mps 722 mmHg 78%
    02:00 +10°C° 0 mm 1 mps 722 mmHg 80%
    03:00 +10°C° 0 mm 1 mps 722 mmHg 82%
    04:00 +10°C° 0 mm 1 mps 722 mmHg 79%
    05:00 +10°C° 0 mm 1 mps 722 mmHg 77%
    06:00 +10°C° 0 mm 1 mps 722 mmHg 74%
    07:00 +11°C° 0 mm 1 mps 722 mmHg 69%
    08:00 +13°C° 0 mm 2 mps 723 mmHg 65%
    09:00 +14°C° 0 mm 2 mps 723 mmHg 60%
    10:00 +15°C° 0 mm 2 mps 723 mmHg 56%
    11:00 +17°C° 0 mm 3 mps 723 mmHg 51%
    12:00 +18°C° 0 mm 3 mps 723 mmHg 47%
    13:00 +19°C° 0 mm 4 mps 722 mmHg 47%
    14:00 +19°C° 0 mm 5 mps 722 mmHg 47%
    15:00 +19°C° 0 mm 6 mps 721 mmHg 47%
    16:00 +17°C° 0 mm 6 mps 721 mmHg 53%
    17:00 +15°C° 0 mm 6 mps 721 mmHg 59%
    18:00 +14°C° 0 mm 5 mps 721 mmHg 65%
    19:00 +13°C° 0 mm 4 mps 721 mmHg 72%
    20:00 +12°C° 0 mm 3 mps 721 mmHg 79%
    21:00 +10°C° 0 mm 2 mps 722 mmHg 86%
    22:00 +10°C° 0 mm 2 mps 721 mmHg 86%
    23:00 +11°C° 0 mm 1 mps 721 mmHg 87%
    Show more